Location: Coffee Creek Observatory
(38.8077°N, 94.7179°W)
Time: 02:56:50
(UTC-05:00)

Amateur Radio Satellites - All Passes

Search period start: 20 September 2014 02:26
Search period end: 21 September 2014 02:26
Location: Coffee Creek Observatory, 38.8077°N, 94.7179°W

Satellite Date Start Highest point End Downlink Frequencies (MHz)
Time Altitude Azimuth
AO-27 20 Sep 02:28:31 02:32:00 18° 93° (E) 02:35:28 436.795 MHz FM
JAS-1B 20 Sep 02:44:41 02:49:38 30° 96° (E) 02:54:36 435.800 - 435.900 CW/SSB
Oscar 16 20 Sep 02:47:20 02:52:31 68° 102° (ESE) 02:57:37 437.025 USB, Beacon 2401.1428
PANSAT 20 Sep 02:54:27 02:56:53 16° 174° (S) 02:59:18 not established
AO-Echo 20 Sep 02:57:35 03:02:09 40° 99° (E) 03:06:50 ?
Saudisat 1A 20 Sep 03:13:11 03:17:26 47° 244° (WSW) 03:21:39 436.775 MHz
Gurwin Techsat 1B 20 Sep 03:22:23 03:26:55 28° 96° (E) 03:31:25 435.225 FM
KITSAT 1 20 Sep 03:27:19 03:33:32 23° 40° (NE) 03:39:42 435.175 FM
ITAMSAT 1 20 Sep 03:31:27 03:36:41 73° 103° (ESE) 03:41:53 435.822 SSB
Uribyol 2 20 Sep 03:35:33 03:40:49 85° 104° (ESE) 03:46:02 436.500 FM
ISS 20 Sep 03:48:07 03:51:14 37° 328° (NNW) 03:54:22 145.800 FM
Oscar 19 20 Sep 03:48:08 03:52:43 33° 291° (WNW) 03:57:17 437.125 CW, 437.150 USB
TMSAT-1 20 Sep 03:58:46 04:03:52 46° 99° (E) 04:08:55 436.925 FM
AO-27 20 Sep 04:06:44 04:11:47 52° 288° (WNW) 04:16:50 436.795 MHz FM
OPAL 20 Sep 04:15:49 04:20:07 27° 65° (ENE) 04:24:28 ?
RS-15 20 Sep 04:21:51 04:32:32 57° 112° (ESE) 04:43:03 29.354 - 29.394 USB, Beacon 29.352 USB
Oscar 16 20 Sep 04:28:29 04:31:15 15° 298° (WNW) 04:34:00 437.025 USB, Beacon 2401.1428
PANSAT 20 Sep 04:34:00 04:36:25 16° 187° (S) 04:38:50 not established
JAS-1B 20 Sep 04:35:20 04:40:21 32° 293° (WNW) 04:45:19 435.800 - 435.900 CW/SSB
AO-Echo 20 Sep 04:37:01 04:40:40 22° 293° (WNW) 04:44:24 ?
Gurwin Techsat 1B 20 Sep 05:02:07 05:06:52 34° 291° (WNW) 05:11:36 435.225 FM
ITAMSAT 1 20 Sep 05:12:54 05:15:32 14° 299° (WNW) 05:18:09 435.822 SSB
Uribyol 2 20 Sep 05:17:34 05:19:32 12° 300° (WNW) 05:21:30 436.500 FM
KITSAT 1 20 Sep 05:21:54 05:30:01 90° 242° (WSW) 05:38:05 435.175 FM
AO-7 20 Sep 05:25:07 05:33:15 57° 103° (ESE) 05:41:21 29.400 - 29.500 MHz
ISS 20 Sep 05:27:29 05:28:42 12° 347° (NNW) 05:29:55 145.800 FM
TMSAT-1 20 Sep 05:39:28 05:43:26 22° 295° (WNW) 05:47:24 436.925 FM
Uosat F 20 Sep 05:46:27 05:51:30 84° 104° (ESE) 05:56:32 435.120 FM
OPAL 20 Sep 05:54:05 05:58:49 36° 260° (W) 06:03:36 ?
JAS-2 20 Sep 06:30:07 06:35:48 37° 98° (E) 06:42:06 435.800 - 435.900 CW/SSB, 435.910 FM
Hamsat 20 Sep 06:34:42 06:38:23 28° 96° (E) 06:42:00 145.90 MHz
RS-15 20 Sep 06:34:53 06:45:10 43° 315° (NW) 06:55:27 29.354 - 29.394 USB, Beacon 29.352 USB
STRAND 1 20 Sep 06:36:02 06:40:32 33° 69° (ENE) 06:45:04 ?
SO-50 20 Sep 07:11:51 07:16:21 38° 52° (NE) 07:20:53 436.795 FM
AO-7 20 Sep 07:18:34 07:25:35 32° 301° (WNW) 07:32:37 29.400 - 29.500 MHz
KITSAT 1 20 Sep 07:19:39 07:24:17 17° 259° (W) 07:28:56 435.175 FM
MaSat-1 20 Sep 07:27:50 07:29:47 12° 100° (E) 07:31:44 437.345 MHz
Uosat F 20 Sep 07:27:55 07:29:34 12° 300° (WNW) 07:31:12 435.120 FM
SO-67 20 Sep 07:42:39 07:45:14 19° 95° (E) 07:47:47 435.3500 MHz FM
Hamsat 20 Sep 08:10:53 08:14:11 22° 291° (WNW) 08:17:26 145.90 MHz
JAS-2 20 Sep 08:15:22 08:20:46 35° 291° (WNW) 08:26:47 435.800 - 435.900 CW/SSB, 435.910 FM
STRAND 1 20 Sep 08:15:27 08:19:43 27° 264° (W) 08:24:01 ?
ISS 20 Sep 08:41:32 08:44:20 24° 27° (NNE) 08:47:07 145.800 FM
UOSAT-12 20 Sep 08:46:44 08:50:53 29° 49° (NE) 08:54:58 437.025 FM, 437.400 FM
SO-50 20 Sep 08:52:48 08:56:44 25° 248° (WSW) 09:00:42 436.795 FM
RS-15 20 Sep 08:54:45 09:01:36 18° 347° (NNW) 09:08:30 29.354 - 29.394 USB, Beacon 29.352 USB
MaSat-1 20 Sep 09:00:54 09:05:54 76° 295° (WNW) 09:10:52 437.345 MHz
SO-67 20 Sep 09:15:33 09:18:09 20° 290° (WNW) 09:20:45 435.3500 MHz FM
HO-68 20 Sep 09:24:11 09:30:06 27° 95° (E) 09:35:59 435.675 MHz FM
UKube-1 20 Sep 10:03:28 10:06:47 21° 95° (E) 10:10:05 145.840 MHz, 145.915 MHz
ISS 20 Sep 10:17:59 10:21:08 41° 224° (SW) 10:24:17 145.800 FM
UOSAT-12 20 Sep 10:26:50 10:31:01 32° 247° (WSW) 10:35:07 437.025 FM, 437.400 FM
MaSat-1 20 Sep 10:41:59 10:43:24 11° 312° (NW) 10:44:49 437.345 MHz
HO-68 20 Sep 11:11:08 11:18:04 54° 292° (WNW) 11:25:00 435.675 MHz FM
RS-15 20 Sep 11:11:54 11:19:55 22° 24° (NNE) 11:28:04 29.354 - 29.394 USB, Beacon 29.352 USB
FUNcube-1 20 Sep 11:13:10 11:17:31 39° 98° (E) 11:21:47 145.950 - 145.970 MHz USB
Oscar 11 20 Sep 11:21:19 11:25:38 66° 285° (WNW) 11:29:55 145.825 FM, Beacon 2401.500 USB
UKube-1 20 Sep 11:39:08 11:43:00 32° 290° (WNW) 11:46:52 145.840 MHz, 145.915 MHz
Sapphire 20 Sep 11:49:51 11:54:22 28° 108° (ESE) 11:58:55 437.095 MHz 1200 baud AX-25 AFSK
PCSat 20 Sep 12:15:55 12:21:08 53° 113° (ESE) 12:26:24 145.825 MHz
Oscar 16 20 Sep 12:28:34 12:29:35 11° 59° (ENE) 12:30:36 437.025 USB, Beacon 2401.1428
FUNcube-1 20 Sep 12:50:16 12:53:35 20° 294° (WNW) 12:56:52 145.950 - 145.970 MHz USB
ITAMSAT 1 20 Sep 13:12:55 13:14:40 12° 60° (ENE) 13:16:25 435.822 SSB
Uribyol 2 20 Sep 13:16:05 13:18:34 14° 61° (ENE) 13:21:03 436.500 FM
RS-15 20 Sep 13:24:11 13:35:11 62° 53° (NE) 13:46:36 29.354 - 29.394 USB, Beacon 29.352 USB
Oscar 19 20 Sep 13:24:32 13:29:14 36° 69° (ENE) 13:33:57 437.125 CW, 437.150 USB
JAS-1B 20 Sep 13:27:14 13:34:22 32° 66° (ENE) 13:40:32 435.800 - 435.900 CW/SSB
Sapphire 20 Sep 13:32:35 13:37:36 38° 305° (NW) 13:42:40 437.095 MHz 1200 baud AX-25 AFSK
AO-27 20 Sep 13:45:24 13:49:31 25° 66° (ENE) 13:53:39 436.795 MHz FM
PCSat 20 Sep 14:00:37 14:04:52 23° 311° (NW) 14:09:08 145.825 MHz
Oscar 16 20 Sep 14:02:55 14:08:06 86° 76° (ENE) 14:13:20 437.025 USB, Beacon 2401.1428
AO-Echo 20 Sep 14:09:36 14:14:05 44° 72° (ENE) 14:18:33 ?
AO-7 20 Sep 14:35:16 14:39:20 15° 49° (NE) 14:43:23 29.400 - 29.500 MHz
Gurwin Techsat 1B 20 Sep 14:42:10 14:47:03 39° 70° (ENE) 14:51:57 435.225 FM
ITAMSAT 1 20 Sep 14:48:14 14:53:24 86° 256° (WSW) 14:58:36 435.822 SSB
Uribyol 2 20 Sep 14:52:13 14:57:22 74° 257° (WSW) 15:02:34 436.500 FM
Oscar 19 20 Sep 15:04:19 15:08:36 26° 265° (W) 15:12:55 437.125 CW, 437.150 USB
JAS-1B 20 Sep 15:16:13 15:24:42 53° 259° (W) 15:31:52 435.800 - 435.900 CW/SSB
TMSAT-1 20 Sep 15:18:13 15:23:25 63° 73° (ENE) 15:28:39 436.925 FM
Uosat F 20 Sep 15:23:40 15:25:21 12° 60° (ENE) 15:27:03 435.120 FM
AO-27 20 Sep 15:24:01 15:28:48 38° 262° (W) 15:33:37 436.795 MHz FM
RS-15 20 Sep 15:37:10 15:47:00 38° 253° (WSW) 15:57:15 29.354 - 29.394 USB, Beacon 29.352 USB
AO-Echo 20 Sep 15:49:58 15:53:04 17° 267° (W) 15:56:09 ?
AO-7 20 Sep 16:22:23 16:30:36 68° 68° (ENE) 16:38:49 29.400 - 29.500 MHz
Gurwin Techsat 1B 20 Sep 16:22:51 16:27:06 24° 265° (W) 16:31:22 435.225 FM
JAS-2 20 Sep 16:47:04 16:47:35 10° 59° (ENE) 16:48:06 435.800 - 435.900 CW/SSB, 435.910 FM
Uosat F 20 Sep 16:58:26 17:03:25 82° 257° (WSW) 17:08:27 435.120 FM
TMSAT-1 20 Sep 17:00:50 17:03:44 15° 269° (W) 17:06:40 436.925 FM
Saudisat 1A 20 Sep 17:18:02 17:22:21 59° 118° (ESE) 17:26:42 436.775 MHz
MaSat-1 20 Sep 17:20:24 17:22:23 14° 50° (NE) 17:24:13 437.345 MHz
Hamsat 20 Sep 17:27:21 17:30:25 19° 67° (ENE) 17:33:29 145.90 MHz
KITSAT 1 20 Sep 17:58:38 18:02:02 13° 99° (E) 18:05:25 435.175 FM
OPAL 20 Sep 18:04:49 18:09:58 67° 104° (ESE) 18:15:01 ?
AO-7 20 Sep 18:17:28 18:23:55 25° 265° (W) 18:30:24 29.400 - 29.500 MHz
JAS-2 20 Sep 18:26:38 18:31:56 88° 256° (WSW) 18:37:08 435.800 - 435.900 CW/SSB, 435.910 FM
STRAND 1 20 Sep 18:49:53 18:51:44 12° 90° (E) 18:53:34 ?
MaSat-1 20 Sep 18:56:00 18:59:23 36° 252° (WSW) 19:02:18 437.345 MHz
Saudisat 1A 20 Sep 18:59:27 19:02:18 17° 316° (NW) 19:05:10 436.775 MHz
Hamsat 20 Sep 19:02:04 19:06:05 36° 263° (W) 19:10:08 145.90 MHz
OPAL 20 Sep 19:45:20 19:48:15 15° 300° (WNW) 19:51:09 ?
SO-67 20 Sep 19:46:09 19:49:36 79° 258° (WSW) 19:53:04 435.3500 MHz FM
KITSAT 1 20 Sep 19:48:02 19:56:05 78° 116° (ESE) 20:04:11 435.175 FM
HO-68 20 Sep 19:53:05 19:57:46 19° 57° (ENE) 20:02:27 435.675 MHz FM
STRAND 1 20 Sep 20:26:17 20:31:25 74° 286° (WNW) 20:36:32 ?
Sapphire 20 Sep 20:38:56 20:42:53 20° 48° (NE) 20:46:49 437.095 MHz 1200 baud AX-25 AFSK
UKube-1 20 Sep 20:58:33 21:01:17 17° 65° (ENE) 21:04:01 145.840 MHz, 145.915 MHz
PCSat 20 Sep 21:05:16 21:10:10 33° 53° (NE) 21:15:01 145.825 MHz
SO-50 20 Sep 21:27:42 21:30:10 15° 108° (ESE) 21:32:40 436.795 FM
HO-68 20 Sep 21:37:28 21:44:36 82° 255° (WSW) 21:51:48 435.675 MHz FM
KITSAT 1 20 Sep 21:45:43 21:52:18 27° 317° (NW) 21:58:56 435.175 FM
FUNcube-1 20 Sep 22:08:35 22:12:18 27° 69° (ENE) 22:16:06 145.950 - 145.970 MHz USB
Oscar 11 20 Sep 22:14:41 22:19:03 81° 76° (ENE) 22:23:26 145.825 FM, Beacon 2401.500 USB
Sapphire 20 Sep 22:21:23 22:26:46 63° 246° (WSW) 22:32:05 437.095 MHz 1200 baud AX-25 AFSK
UKube-1 20 Sep 22:33:01 22:37:07 42° 261° (W) 22:41:15 145.840 MHz, 145.915 MHz
PCSat 20 Sep 22:48:42 22:53:31 33° 251° (WSW) 22:58:19 145.825 MHz
UOSAT-12 20 Sep 23:00:36 23:01:11 10° 106° (ESE) 23:01:46 437.025 FM, 437.400 FM
SO-50 20 Sep 23:05:50 23:10:13 54° 305° (NW) 23:14:43 436.795 FM
HO-68 20 Sep 23:30:33 23:33:15 12° 271° (W) 23:35:58 435.675 MHz FM
FUNcube-1 20 Sep 23:44:56 23:48:37 26° 265° (W) 23:52:23 145.950 - 145.970 MHz USB
UOSAT-12 21 Sep 00:36:00 00:40:36 79° 302° (WNW) 00:45:20 437.025 FM, 437.400 FM
ISS 21 Sep 01:24:34 01:26:01 12° 128° (SE) 01:27:28 145.800 FM
Oscar 19 21 Sep 01:39:04 01:41:33 13° 91° (E) 01:44:00 437.125 CW, 437.150 USB
Saudisat 1A 21 Sep 01:46:06 01:50:07 33° 52° (NE) 01:54:07 436.775 MHz
KITSAT 1 21 Sep 01:51:23 01:51:36 10° 19° (NNE) 01:51:49 435.175 FM
Oscar 16 21 Sep 02:16:22 02:21:02 34° 97° (E) 02:25:40 437.025 USB, Beacon 2401.1428
AO-Echo 21 Sep 02:18:49 02:21:49 16° 93° (E) 02:24:50 ?
UOSAT-12 21 Sep 02:19:39 02:21:33 12° 321° (NW) 02:23:27 437.025 FM, 437.400 FM
